SCP
-0 -0 -0 -0 -0 0 -0 -0 -0 0 -0 -0 -0 0 0 0 2 2 3 3 3 3 4 3 2 1 0 0 0 0 0 0 0 0 0 0 0 0 0 0 0 0 0 0
0 -0 -0 -0 -0 0 0 -0 0 0 -0 -0 0 0 0 1 1 1 1 1 2 2 1 1 0 0 0 0 0 0 0 0 0 0 0 0 0 0 0 0 0 0 0 0
-0 0 -0 -0 0 0 -0 -0 -0 0 0 0 -0 0 0 0 0 0 0 1 1 1 1 0 0 0 0 0 0 0 0 0 0 0 0 0 0 0 0 0 0 0 0 0
0 0 -0 0 -0 0 0 -0 0 0 -0 0 0 0 0 0 -0 0 0 0 0 0 0 0 0 0 0 0 0 0 0 0 0 0 0 0 0 0 0 0 0 0 0 0
0 -0 -0 0 0 0 0 0 0 0 0 -0 -0 -0 0 0 0 0 0 0 0 0 0 0 0 0 0 0 0 0 0 0 0 0 0 0 0 0 0 0 0 0 0 0
0 -0 0 0 -0 -0 0 0 0 -0 0 -0 -0 -0 0 -0 -0 0 0 0 0 0 0 0 0 0 0 0 0 0 0 0 0 0 0 0 0 0 0 0 0 0 0 0
0 0 0 0 -0 0 0 0 -0 -0 0 -0 -0 -0 -0 -0 -0 0 0 0 0 0 0 0 0 0 0 0 0 0 0 0 0 0 0 0 0 0 0 0 0 0 0 0
0 0 0 -0 0 0 0 -0 -0 0 0 -0 -0 -0 -0 -0 -0 -0 -0 0 0 0 0 0 0 0 0 0 0 0 0 0 0 0 0 0 0 0 0 0 0 0 0 0
0 0 0 0 0 -0 -0 0 0 -0 0 -0 -0 -0 -0 -0 -0 -0 0 0 0 0 0 0 0 0 0 0 0 0 0 0 0 0 0 0 0 0 0 0 0 0 0 0
0 0 -0 -0 -0 -0 -0 -0 -0 -0 -0 -0 -0 -0 0 -0 -0 0 0 0 0 0 0 0 0 0 0 0 0 0 0 0 0 0 0 0 0 0 0 0 0 0 0 0
0 0 0 -0 -0 -0 -0 -0 -0 0 0 -0 -0 0 -0 0 0 -0 0 0 0 0 0 0 0 0 0 0 0 0 0 0 0 0 0 0 0 0 0 0 0 0 0 0
0 0 -0 -0 -0 -0 -0 -0 -0 -0 0 0 -0 -0 -0 -0 -0 -0 -0 0 0 0 0 0 -0 0 0 0 0 0 0 0 0 0 0 0 0 0 0 0 0 0 0 0
-0 -0 -0 0 -0 -0 -0 -0 -0 0 0 -0 -0 -0 -0 -0 0 -0 0 0 0 0 0 0 0 0 0 0 0 0 0 0 0 0 0 0 0 0 0 0 0 0 0 0
-0 -0 -0 0 0 0 -0 -0 0 -0 0 -0 -0 -0 -0 -0 -0 -0 -0 0 0 0 0 0 0 0 0 0 0 0 0 0 0 0 0 0 0 0 0 0 0 0 0 0
-0 -0 -0 -0 -0 -0 0 0 -0 0 0 0 0 0 -0 -0 0 -0 0 0 0 0 0 0 0 0 0 0 0 0 0 0 0 0 0 0 0 0 0 0 0 0 0 0
-0 -0 0 0 -0 -0 0 0 0 0 0 -0 -0 -0 -0 0 0 0 0 0 0 0 0 0 0 0 0 0 0 0 0 0 0 0 0 0 0 0 0 0 0 0 0 0
0 0 0 0 0 -0 -0 -0 -0 0 0 0 0 0 0 0 0 0 0 0 0 0 0 0 0 0 0 0 0 0 0 0 0 0 0 0 0 0 0 0 0 0 0 0
-0 -0 -0 -0 -0 -0 -0 -0 -0 -0 -0 -0 -0 -0 -0 -0 -0 -0 -0 0 0 0 0 0 0 0 0 0 0 0 0 0 0 0 0 0 0 0 0 0 0 0 0 0
-0 -0 -0 -0 -0 -0 -0 -0 -0 -0 -0 -0 -0 0 0 0 0 0 0 0 0 0 0 0 0 0 0 0 0 0 0 0 0 0 0 0 0 0 0 0 0 0 0 0
-0 -0 -0 -0 -0 -0 -0 -0 0 0 0 0 0 0 0 0 0 0 0 0 0 0 0 0 0 0 0 0 0 0 0 0 0 0 0 0 0 0 0 0 0 0 0 0
0 0 0 0 0 0 0 0 0 0 0 0 0 0 0 0 0 0 0 0 0 0 0 0 0 0 0 0 0 0 0 0 0 0 0 0 0 0 0 0 0 0 0 0
0 0 0 0 0 0 0 0 0 0 0 0 0 0 0 0 0 0 0 0 0 0 0 0 0 0 0 0 0 0 0 0 0 0 0 0 0 0 0 0 0 0 0 0
0 0 0 0 0 0 0 0 0 0 0 0 0 0 0 0 0 0 0 0 0 0 0 0 0 0 0 0 0 0 0 0 0 0 0 0 0 0 0 0 0 0 0 0
0 0 0 0 0 0 -0 -0 -0 0 0 0 0 0 0 0 0 0 0 0 0 0 0 0 0 0 0 0 0 0 0 0 0 0 0 0 0 0 0 0 0 0 0 0
0 0 0 0 0 0 0 0 0 0 0 0 0 0 0 0 0 0 0 0 0 0 0 0 0 0 0 0 0 0 0 0 0 0 0 0 0 0 0 0 0 0 0 0
0 0 0 0 0 0 0 0 0 0 0 0 0 0 0 0 0 0 0 0 0 0 0 0 0 0 0 0 0 0 0 0 0 0 0 0 0 0 0 0 0 0 0 0
0 0 0 0 0 0 0 0 0 0 0 0 0 0 0 0 0 0 0 0 0 0 0 0 0 0 0 0 0 0 0 0 0 0 0 0 0 0 0 0 0 0 0 0
Wind_Speed_500mb
18 29 33 34 37 35 12 15 10 9 12 9 16 28 18 20 20 20 45 43 71 71 63 79 93 91 91 90 89 85 82 77 73 69 65 61 55 47 36 28 21 13 9 13
16 29 19 31 36 36 39 31 29 25 9 10 6 14 7 16 16 11 22 40 54 83 81 89 105 101 98 94 88 88 83 78 71 63 57 51 44 36 27 19 10 7 11 14
9 18 34 19 18 34 35 30 29 14 13 13 7 12 7 28 37 45 33 35 44 61 75 104 106 103 101 93 84 82 79 70 63 56 50 41 32 24 17 10 5 7 9 14
10 15 6 13 37 10 24 27 20 25 31 19 24 43 38 45 66 64 64 53 48 82 85 96 101 104 97 87 82 79 71 65 59 47 38 29 21 14 9 6 3 3 5 8
5 5 17 11 24 19 16 9 18 21 23 32 63 73 30 53 66 78 85 74 48 108 101 113 98 101 95 89 84 75 67 56 45 36 30 21 16 13 13 9 7 5 4 6
3 3 8 8 44 46 25 7 23 32 27 33 36 23 8 51 72 73 77 72 61 94 95 95 85 85 86 82 73 59 49 40 31 24 19 17 15 14 16 12 11 8 11 11
12 5 11 22 50 37 9 3 26 19 52 39 21 25 45 74 74 76 80 82 92 91 91 88 81 80 73 62 53 43 36 29 24 19 16 14 15 15 14 16 17 17 20 20
6 4 8 50 26 12 18 47 31 8 34 77 76 62 66 75 76 75 82 82 81 84 77 68 63 64 62 53 41 32 29 29 22 15 13 11 20 26 28 28 29 25 19 19
7 5 17 34 22 39 45 19 33 22 62 77 74 73 72 75 73 76 76 78 79 80 74 62 56 52 53 40 30 29 23 20 18 16 19 26 25 33 33 33 27 22 15 12
4 10 22 32 38 46 40 47 62 55 65 79 72 75 75 79 79 75 71 71 66 65 63 54 45 41 39 29 21 19 17 16 14 9 14 20 22 21 25 28 29 23 17 14
4 8 5 42 40 39 57 66 68 61 69 76 78 73 76 77 74 68 60 52 50 49 45 40 32 26 22 17 11 7 3 4 4 12 16 17 19 22 22 22 17 14 15 11
6 11 29 34 48 54 78 68 67 75 72 69 86 82 82 78 64 61 56 47 42 35 28 23 18 17 14 12 12 12 13 13 10 15 14 20 21 25 24 18 16 18 17 16
31 53 50 53 69 73 77 71 82 80 80 83 75 83 82 70 58 51 41 35 38 30 24 14 8 4 6 12 14 13 17 25 18 13 23 24 22 19 18 26 23 21 21 21
32 39 50 48 50 68 77 78 82 81 81 80 74 70 66 64 60 60 53 42 35 29 23 14 6 1 6 7 9 21 19 27 27 23 21 20 19 20 22 24 26 30 28 33
18 35 47 45 42 43 54 60 62 60 58 57 51 41 35 31 37 36 34 31 22 17 10 7 6 4 5 3 11 22 31 33 29 26 21 18 20 21 19 20 22 30 38 37
38 38 44 46 46 46 48 48 49 42 41 41 37 35 31 27 22 19 18 16 12 12 10 11 11 8 7 3 17 30 32 29 26 23 21 21 20 19 22 24 19 18 29 26
47 42 41 40 39 40 40 33 30 23 16 19 13 18 14 15 14 12 10 9 11 13 11 13 15 12 8 11 21 26 32 26 26 28 24 18 19 19 31 27 31 35 38 31
50 44 38 36 34 31 27 22 17 14 7 4 6 8 13 18 20 21 21 21 19 20 18 19 20 14 12 23 29 28 32 33 31 26 25 22 24 31 30 27 27 33 32 28
35 37 32 26 22 24 20 11 6 2 6 11 9 13 14 17 20 22 21 20 18 15 15 12 11 14 24 31 35 38 38 33 29 26 25 26 25 27 30 29 31 29 22 18
29 27 24 24 22 12 5 5 9 12 12 13 17 17 16 16 17 16 16 12 6 8 8 10 12 21 33 35 40 41 44 33 20 25 33 28 35 34 33 30 28 22 19 18
28 25 21 21 17 4 8 14 18 18 19 15 14 12 13 13 16 10 4 1 6 7 10 11 24 27 33 36 38 45 43 39 37 30 30 26 32 36 33 31 31 28 25 21
23 23 22 16 12 8 12 15 17 17 22 17 14 11 12 9 8 4 3 8 7 9 12 23 25 30 32 35 46 43 38 30 35 39 39 38 38 36 32 30 29 27 24 20
21 18 14 9 2 5 11 10 10 12 16 17 9 9 11 8 4 4 4 6 9 20 23 24 28 32 41 47 49 38 30 35 40 43 43 39 36 36 33 30 27 24 21 19
22 17 14 9 9 6 13 8 7 8 17 12 5 3 3 7 2 2 2 14 16 17 21 26 37 41 48 37 32 38 41 43 42 39 42 41 41 38 32 25 21 19 16 13
9 10 10 5 1 6 8 4 2 9 20 11 8 7 7 7 9 17 17 16 15 18 19 29 36 39 42 40 40 42 43 38 35 39 38 36 33 32 32 26 18 15 14 13
17 8 3 6 5 6 3 2 2 3 10 11 13 15 15 15 15 14 13 14 18 26 29 32 35 37 39 39 35 33 35 35 36 35 35 35 37 37 31 22 14 11 12 13
9 8 8 3 5 5 1 5 6 6 4 6 12 13 14 16 16 16 18 24 31 31 34 37 39 40 40 37 39 42 39 34 33 31 25 23 26 30 27 23 19 16 14 12
Wind_Direction_500mb
298 297 289 286 283 288 211 244 251 270 276 135 246 277 274 0 3 120 101 125 127 124 134 132 129 141 139 142 148 155 156 153 150 151 152 150 150 150 151 154 158 169 232 257
290 290 317 305 274 254 247 205 220 251 257 180 259 328 296 269 281 96 136 121 134 136 134 126 125 125 126 132 135 145 144 146 147 147 147 146 147 146 150 151 159 216 255 279
259 333 311 278 299 228 217 215 199 200 185 176 101 286 51 77 86 71 87 119 125 128 133 121 121 124 124 128 134 134 134 134 137 140 142 143 143 146 147 147 153 243 287 304
284 304 267 335 332 320 196 226 186 130 167 178 103 64 86 102 95 82 93 90 97 108 93 111 113 114 116 121 121 119 123 131 135 140 141 140 140 139 128 129 190 258 329 353
273 300 288 356 353 351 360 292 140 125 125 115 98 79 49 101 105 98 98 86 78 110 113 106 113 118 122 126 124 130 134 139 144 146 143 143 141 133 140 161 149 109 70 40
323 301 303 353 328 324 317 94 114 128 129 131 131 102 80 93 104 103 116 133 117 101 113 117 117 123 126 126 132 132 136 136 140 136 139 144 135 135 147 155 133 123 116 89
232 245 240 349 329 326 53 15 302 198 143 151 112 112 120 109 100 108 111 113 121 120 117 119 129 132 122 123 121 124 121 122 126 117 120 127 135 143 163 145 137 112 88 71
275 322 360 348 350 25 307 299 312 192 132 107 114 119 116 112 114 108 113 114 114 112 112 117 121 123 115 112 114 111 110 121 128 118 107 139 138 128 115 106 97 97 90 72
18 354 306 327 330 324 326 79 129 167 121 124 124 122 120 117 123 121 119 117 117 116 114 111 111 112 107 102 103 98 106 110 117 125 130 122 122 136 129 116 117 129 102 76
235 353 347 4 13 15 46 78 120 135 133 128 124 123 119 118 118 122 124 121 121 118 115 112 109 105 101 100 84 84 95 124 134 130 135 148 149 140 142 144 149 153 149 153
50 314 356 27 35 36 62 77 103 116 126 123 122 117 119 120 122 121 117 113 114 113 111 108 105 105 109 125 135 118 160 155 151 124 143 150 142 135 143 145 136 143 137 115
22 60 66 46 53 64 74 71 87 97 105 112 123 120 123 117 112 112 112 110 102 99 111 115 137 144 147 162 171 167 156 176 148 127 122 126 115 117 120 125 135 131 104 83
87 80 70 67 65 69 78 80 87 87 92 101 105 113 114 113 115 115 108 108 110 133 132 136 151 117 85 115 164 189 164 175 159 123 120 111 96 89 112 115 120 112 94 78
91 84 70 69 73 76 79 78 85 93 96 98 102 106 108 112 120 117 120 134 152 159 157 161 187 302 346 32 142 181 168 152 138 129 122 113 105 108 108 106 100 93 96 80
121 112 105 95 88 87 84 81 81 85 90 92 91 95 116 125 136 141 148 155 160 174 168 173 222 262 320 30 131 142 134 132 134 140 146 143 132 119 106 97 103 101 93 84
109 114 92 86 83 84 86 85 86 90 99 105 111 119 138 159 162 166 168 185 188 189 183 196 228 251 269 197 144 144 144 152 148 159 154 154 147 149 134 117 112 111 109 91
105 94 92 84 83 79 79 86 91 89 97 105 123 143 159 174 188 201 205 217 228 235 231 232 240 247 255 172 153 156 151 148 143 146 141 130 125 113 126 107 98 110 112 107
101 102 103 104 100 95 89 89 91 97 88 140 229 228 226 236 245 253 259 262 262 260 258 250 250 248 184 155 153 151 155 146 140 138 147 148 127 111 113 105 97 104 112 117
102 98 92 91 101 103 98 89 75 58 304 317 314 290 280 270 272 272 270 264 258 253 258 249 216 187 159 160 158 148 150 148 142 150 143 129 128 126 133 130 120 124 125 124
107 102 99 101 96 82 68 356 329 316 320 331 327 325 318 312 300 284 275 264 244 246 231 269 194 171 161 170 168 160 154 149 159 166 155 162 155 147 146 146 142 137 130 120
109 106 110 119 106 62 0 345 351 14 22 19 9 2 354 344 330 309 292 281 235 247 216 211 173 166 170 181 175 164 153 147 152 161 167 164 156 148 143 141 138 139 137 140
107 101 98 108 110 71 11 3 20 20 9 1 358 356 355 353 359 8 231 224 217 220 187 165 167 170 175 170 160 149 143 133 153 147 148 150 152 151 151 156 159 159 161 161
106 98 99 113 200 12 19 40 37 21 2 354 334 327 340 322 246 244 306 212 202 166 168 171 173 176 163 156 144 136 149 162 164 161 157 157 157 160 159 162 168 173 175 170
114 105 102 99 117 90 34 59 70 24 4 5 16 50 22 355 40 221 269 134 141 161 163 161 157 156 152 144 151 149 156 164 162 160 160 162 164 167 172 175 182 175 161 155
116 119 107 121 83 24 30 87 100 8 0 32 60 69 63 84 100 113 117 127 134 146 148 153 153 150 149 142 144 154 156 162 169 181 179 179 178 176 172 176 174 160 149 141
146 150 98 82 96 102 129 137 149 98 10 54 81 89 97 105 113 123 134 140 139 139 142 147 148 150 147 141 143 143 143 155 171 177 180 179 183 183 184 181 173 153 130 120
159 146 116 63 53 117 188 164 160 131 29 65 110 109 113 117 117 118 120 130 142 140 138 142 147 150 150 150 148 151 159 167 171 174 165 157 157 158 158 155 155 145 131 118
Wind_Speed_850mb
18 29 33 34 37 35 12 15 10 9 12 9 16 28 18 20 20 20 45 43 71 71 63 79 93 91 91 90 89 85 82 77 73 69 65 61 55 47 36 28 21 13 9 13
16 29 19 31 36 36 39 31 29 25 9 10 6 14 7 16 16 11 22 40 54 83 81 89 105 101 98 94 88 88 83 78 71 63 57 51 44 36 27 19 10 7 11 14
9 18 34 19 18 34 35 30 29 14 13 13 7 12 7 28 37 45 33 35 44 61 75 104 106 103 101 93 84 82 79 70 63 56 50 41 32 24 17 10 5 7 9 14
10 15 6 13 37 10 24 27 20 25 31 19 24 43 38 45 66 64 64 53 48 82 85 96 101 104 97 87 82 79 71 65 59 47 38 29 21 14 9 6 3 3 5 8
5 5 17 11 24 19 16 9 18 21 23 32 63 73 30 53 66 78 85 74 48 108 101 113 98 101 95 89 84 75 67 56 45 36 30 21 16 13 13 9 7 5 4 6
3 3 8 8 44 46 25 7 23 32 27 33 36 23 8 51 72 73 77 72 61 94 95 95 85 85 86 82 73 59 49 40 31 24 19 17 15 14 16 12 11 8 11 11
12 5 11 22 50 37 9 3 26 19 52 39 21 25 45 74 74 76 80 82 92 91 91 88 81 80 73 62 53 43 36 29 24 19 16 14 15 15 14 16 17 17 20 20
6 4 8 50 26 12 18 47 31 8 34 77 76 62 66 75 76 75 82 82 81 84 77 68 63 64 62 53 41 32 29 29 22 15 13 11 20 26 28 28 29 25 19 19
7 5 17 34 22 39 45 19 33 22 62 77 74 73 72 75 73 76 76 78 79 80 74 62 56 52 53 40 30 29 23 20 18 16 19 26 25 33 33 33 27 22 15 12
4 10 22 32 38 46 40 47 62 55 65 79 72 75 75 79 79 75 71 71 66 65 63 54 45 41 39 29 21 19 17 16 14 9 14 20 22 21 25 28 29 23 17 14
4 8 5 42 40 39 57 66 68 61 69 76 78 73 76 77 74 68 60 52 50 49 45 40 32 26 22 17 11 7 3 4 4 12 16 17 19 22 22 22 17 14 15 11
6 11 29 34 48 54 78 68 67 75 72 69 86 82 82 78 64 61 56 47 42 35 28 23 18 17 14 12 12 12 13 13 10 15 14 20 21 25 24 18 16 18 17 16
31 53 50 53 69 73 77 71 82 80 80 83 75 83 82 70 58 51 41 35 38 30 24 14 8 4 6 12 14 13 17 25 18 13 23 24 22 19 18 26 23 21 21 21
32 39 50 48 50 68 77 78 82 81 81 80 74 70 66 64 60 60 53 42 35 29 23 14 6 1 6 7 9 21 19 27 27 23 21 20 19 20 22 24 26 30 28 33
18 35 47 45 42 43 54 60 62 60 58 57 51 41 35 31 37 36 34 31 22 17 10 7 6 4 5 3 11 22 31 33 29 26 21 18 20 21 19 20 22 30 38 37
38 38 44 46 46 46 48 48 49 42 41 41 37 35 31 27 22 19 18 16 12 12 10 11 11 8 7 3 17 30 32 29 26 23 21 21 20 19 22 24 19 18 29 26
47 42 41 40 39 40 40 33 30 23 16 19 13 18 14 15 14 12 10 9 11 13 11 13 15 12 8 11 21 26 32 26 26 28 24 18 19 19 31 27 31 35 38 31
50 44 38 36 34 31 27 22 17 14 7 4 6 8 13 18 20 21 21 21 19 20 18 19 20 14 12 23 29 28 32 33 31 26 25 22 24 31 30 27 27 33 32 28
35 37 32 26 22 24 20 11 6 2 6 11 9 13 14 17 20 22 21 20 18 15 15 12 11 14 24 31 35 38 38 33 29 26 25 26 25 27 30 29 31 29 22 18
29 27 24 24 22 12 5 5 9 12 12 13 17 17 16 16 17 16 16 12 6 8 8 10 12 21 33 35 40 41 44 33 20 25 33 28 35 34 33 30 28 22 19 18
28 25 21 21 17 4 8 14 18 18 19 15 14 12 13 13 16 10 4 1 6 7 10 11 24 27 33 36 38 45 43 39 37 30 30 26 32 36 33 31 31 28 25 21
23 23 22 16 12 8 12 15 17 17 22 17 14 11 12 9 8 4 3 8 7 9 12 23 25 30 32 35 46 43 38 30 35 39 39 38 38 36 32 30 29 27 24 20
21 18 14 9 2 5 11 10 10 12 16 17 9 9 11 8 4 4 4 6 9 20 23 24 28 32 41 47 49 38 30 35 40 43 43 39 36 36 33 30 27 24 21 19
22 17 14 9 9 6 13 8 7 8 17 12 5 3 3 7 2 2 2 14 16 17 21 26 37 41 48 37 32 38 41 43 42 39 42 41 41 38 32 25 21 19 16 13
9 10 10 5 1 6 8 4 2 9 20 11 8 7 7 7 9 17 17 16 15 18 19 29 36 39 42 40 40 42 43 38 35 39 38 36 33 32 32 26 18 15 14 13
17 8 3 6 5 6 3 2 2 3 10 11 13 15 15 15 15 14 13 14 18 26 29 32 35 37 39 39 35 33 35 35 36 35 35 35 37 37 31 22 14 11 12 13
9 8 8 3 5 5 1 5 6 6 4 6 12 13 14 16 16 16 18 24 31 31 34 37 39 40 40 37 39 42 39 34 33 31 25 23 26 30 27 23 19 16 14 12
Wind_Direction_850mb
298 297 289 286 283 288 211 244 251 270 276 135 246 277 274 0 3 120 101 125 127 124 134 132 129 141 139 142 148 155 156 153 150 151 152 150 150 150 151 154 158 169 232 257
290 290 317 305 274 254 247 205 220 251 257 180 259 328 296 269 281 96 136 121 134 136 134 126 125 125 126 132 135 145 144 146 147 147 147 146 147 146 150 151 159 216 255 279
259 333 311 278 299 228 217 215 199 200 185 176 101 286 51 77 86 71 87 119 125 128 133 121 121 124 124 128 134 134 134 134 137 140 142 143 143 146 147 147 153 243 287 304
284 304 267 335 332 320 196 226 186 130 167 178 103 64 86 102 95 82 93 90 97 108 93 111 113 114 116 121 121 119 123 131 135 140 141 140 140 139 128 129 190 258 329 353
273 300 288 356 353 351 360 292 140 125 125 115 98 79 49 101 105 98 98 86 78 110 113 106 113 118 122 126 124 130 134 139 144 146 143 143 141 133 140 161 149 109 70 40
323 301 303 353 328 324 317 94 114 128 129 131 131 102 80 93 104 103 116 133 117 101 113 117 117 123 126 126 132 132 136 136 140 136 139 144 135 135 147 155 133 123 116 89
232 245 240 349 329 326 53 15 302 198 143 151 112 112 120 109 100 108 111 113 121 120 117 119 129 132 122 123 121 124 121 122 126 117 120 127 135 143 163 145 137 112 88 71
275 322 360 348 350 25 307 299 312 192 132 107 114 119 116 112 114 108 113 114 114 112 112 117 121 123 115 112 114 111 110 121 128 118 107 139 138 128 115 106 97 97 90 72
18 354 306 327 330 324 326 79 129 167 121 124 124 122 120 117 123 121 119 117 117 116 114 111 111 112 107 102 103 98 106 110 117 125 130 122 122 136 129 116 117 129 102 76
235 353 347 4 13 15 46 78 120 135 133 128 124 123 119 118 118 122 124 121 121 118 115 112 109 105 101 100 84 84 95 124 134 130 135 148 149 140 142 144 149 153 149 153
50 314 356 27 35 36 62 77 103 116 126 123 122 117 119 120 122 121 117 113 114 113 111 108 105 105 109 125 135 118 160 155 151 124 143 150 142 135 143 145 136 143 137 115
22 60 66 46 53 64 74 71 87 97 105 112 123 120 123 117 112 112 112 110 102 99 111 115 137 144 147 162 171 167 156 176 148 127 122 126 115 117 120 125 135 131 104 83
87 80 70 67 65 69 78 80 87 87 92 101 105 113 114 113 115 115 108 108 110 133 132 136 151 117 85 115 164 189 164 175 159 123 120 111 96 89 112 115 120 112 94 78
91 84 70 69 73 76 79 78 85 93 96 98 102 106 108 112 120 117 120 134 152 159 157 161 187 302 346 32 142 181 168 152 138 129 122 113 105 108 108 106 100 93 96 80
121 112 105 95 88 87 84 81 81 85 90 92 91 95 116 125 136 141 148 155 160 174 168 173 222 262 320 30 131 142 134 132 134 140 146 143 132 119 106 97 103 101 93 84
109 114 92 86 83 84 86 85 86 90 99 105 111 119 138 159 162 166 168 185 188 189 183 196 228 251 269 197 144 144 144 152 148 159 154 154 147 149 134 117 112 111 109 91
105 94 92 84 83 79 79 86 91 89 97 105 123 143 159 174 188 201 205 217 228 235 231 232 240 247 255 172 153 156 151 148 143 146 141 130 125 113 126 107 98 110 112 107
101 102 103 104 100 95 89 89 91 97 88 140 229 228 226 236 245 253 259 262 262 260 258 250 250 248 184 155 153 151 155 146 140 138 147 148 127 111 113 105 97 104 112 117
102 98 92 91 101 103 98 89 75 58 304 317 314 290 280 270 272 272 270 264 258 253 258 249 216 187 159 160 158 148 150 148 142 150 143 129 128 126 133 130 120 124 125 124
107 102 99 101 96 82 68 356 329 316 320 331 327 325 318 312 300 284 275 264 244 246 231 269 194 171 161 170 168 160 154 149 159 166 155 162 155 147 146 146 142 137 130 120
109 106 110 119 106 62 0 345 351 14 22 19 9 2 354 344 330 309 292 281 235 247 216 211 173 166 170 181 175 164 153 147 152 161 167 164 156 148 143 141 138 139 137 140
107 101 98 108 110 71 11 3 20 20 9 1 358 356 355 353 359 8 231 224 217 220 187 165 167 170 175 170 160 149 143 133 153 147 148 150 152 151 151 156 159 159 161 161
106 98 99 113 200 12 19 40 37 21 2 354 334 327 340 322 246 244 306 212 202 166 168 171 173 176 163 156 144 136 149 162 164 161 157 157 157 160 159 162 168 173 175 170
114 105 102 99 117 90 34 59 70 24 4 5 16 50 22 355 40 221 269 134 141 161 163 161 157 156 152 144 151 149 156 164 162 160 160 162 164 167 172 175 182 175 161 155
116 119 107 121 83 24 30 87 100 8 0 32 60 69 63 84 100 113 117 127 134 146 148 153 153 150 149 142 144 154 156 162 169 181 179 179 178 176 172 176 174 160 149 141
146 150 98 82 96 102 129 137 149 98 10 54 81 89 97 105 113 123 134 140 139 139 142 147 148 150 147 141 143 143 143 155 171 177 180 179 183 183 184 181 173 153 130 120
159 146 116 63 53 117 188 164 160 131 29 65 110 109 113 117 117 118 120 130 142 140 138 142 147 150 150 150 148 151 159 167 171 174 165 157 157 158 158 155 155 145 131 118